Regional Weather Roundup
Issued by NWS

Home | Current Version | Previous Version | Text Only | Print | Product List | Glossary On
Versions: 1 2 3 4 5 6 7 8 9 10 11 12 13 14 15 16 17 18 19 20 21 22 23 24 25 26 27 28 29 30 31 32 33 34 35 36 37 38 39 40 41 42 43 44 45 46 47 48 49 50
000
ASUS43 KBIS 241610
RWRND

NORTH DAKOTA REGIONAL WEATHER ROUNDUP
NATIONAL WEATHER SERVICE BISMARCK ND
1100 AM CDT SUN SEP 24 2017

NOTE: "FAIR" INDICATES FEW OR NO CLOUDS BELOW 12,000 FEET WITH NO
SIGNIFICANT WEATHER AND/OR OBSTRUCTIONS TO VISIBILITY.


NDZ001>003-009>011-017-241700-
NORTHWEST NORTH DAKOTA

CITY           SKY/WX    TMP DP  RH WIND       PRES   REMARKS
WILLISTON      CLOUDY    46  42  86 N12       30.10S
MINOT          LGT RAIN  47  45  93 NW15      30.03S
MINOT AFB      LGT RAIN  46  45  93 N13       30.01F
$$

NDZ018>021-031>035-040>046-241700-
SOUTHWEST NORTH DAKOTA

CITY           SKY/WX    TMP DP  RH WIND       PRES   REMARKS
BISMARCK       LGT RAIN  49  48  97 N13       30.00S FOG
DICKINSON      CLOUDY    44  43  96 N12       30.03R
GARRISON         N/A     46  45  96 N10G17    30.02R
HETTINGER ARPT CLOUDY    45  42  89 N12G20    30.04S
$$

NDZ004>008-012>016-024-026-027-054-241700-
NORTHEAST NORTH DAKOTA

CITY           SKY/WX    TMP DP  RH WIND       PRES   REMARKS
GRAND FORKS    LGT RAIN  53  53 100 N12       29.87R FOG
GRND FRKS AFB  LGT RAIN  52  52 100 N14       29.89R
DEVILS LAKE    RAIN      48  46  93 N17G25    29.95R
$$

NDZ022-023-025-028>030-036>039-047>053-241700-
SOUTHEAST NORTH DAKOTA

CITY           SKY/WX    TMP DP  RH WIND       PRES   REMARKS
FARGO          LGT RAIN  56  55  97 N8        29.84R FOG
JAMESTOWN      RAIN      50  48  93 N12       29.90R FOG
$$




USA.gov is the U.S. government's official web portal to all federal, state and local government web resources and services.